Showing default

SPACEMOBILE-002, 61048

Orbit data source: Space-Track

SPACEMOBILE-002, 61048 is a payload satellite owned by AST & Science (US) in LEO that was launched on Thu, 12 Sep 2024 UTC via an FALCON 9 launch vehicle from the Air Force Eastern Test Range (AFETR). Payload-class satellites include a variety of spacecraft equipped with specific instruments for various scientific and technological missions. These include communications satellites like Starlink; space stations such as the ISS; scientific satellites like the Hubble; Earth observation satellites from companies like Planet Labs, Umbra, and HawkEye 360; GPS; miniature CubeSats for education and research; and military/defense satellites.

Loading next visibility...
Identifier
61048, 2024-163D
Orbit
LEO
Country
Flag of USUS
Related business
Manufacturer
AST & Science
Mission
Operational Commercial Communications
Bus & Motor
BW3, Unknown motor
Mass
1,500 kg wet, 1,500 kg dry
Launch date (UTC)
2024-09-12 (2 years ago)
Launch vehicle
FALCON 9
Launch site
Air Force Eastern Test Range (AFETR)
Object type
Payload
Rocket body
Debris
Shape & HBR
Box + 1 Plate, 6.5 m
Radar Cross Section
32.590 m², Large (>1 m²)

Expand to show TLE details & history
Last TLE update: 12 hours ago

TLE from 12 hours ago
0 SPACEMOBILE-002
1 61048U 24163D   26171.33831669  .00008055  00000-0  37445-3 0  9995
2 61048  52.9696 294.6525 0008490 127.7715 232.4050 15.20830615 98242
Epoch: 2026-06-20T08:07Z
TLE epoch observation values (Epoch: 2026-06-20T08:07:10.562Z)
Latitude
0.00005°
Longitude
-95.69584°
Altitude
507.777 km
Speed
7.609 km/s
True Right ascension
19h 38m 36s
True Declination
0° 00' 00"
Sunlit
Object was in full shadow at epoch
Visualization orbit readout
Latitude
Unknown
Longitude
Unknown
Altitude
Unknown
Speed
Unknown
Apparent Right ascension
Unknown
Apparent Declination
Unknown
Sunlit
N/A
Visualization observer readout
Local Sidereal Time
07:24:03
Azimuth
Unknown
Elevation
Unknown
Doppler factor
Unknown
Orbital elements
Apogee altitude
509.463 km
Perigee altitude
497.777 km
Semi-major axis
6,881.757 km
Eccentricity
0.00085
Inclination
52.9696°
RAAN
294.6525°
Arg. of periapsis
127.7715°
True anomaly
232.32796°
Mean anomaly
232.405°
Eccentric anomaly
232.36648°
Mean motion
3.80184 °/min
Orbital period
94.69 mins
BSTAR
0.00037445
Loading maneuver chart data...
Computing Atmospheric mass density...
Loading historical data...
Loading historical data...
Loading historical data...
Loading historical data...
Loading historical data...
Loading historical data...
Loading historical data...

Documentation

Showing up to 5 results
|